Weather History for Harrison, AR

Change the Weather History Date:

Tuesday, June 26, 2012

  Actual Average Record
Temperature  
Mean Temperature 83 °F 76 °F  
Max Temperature 95 °F 87 °F 102 °F (1954)
Min Temperature 70 °F 65 °F 46 °F (1974)
Degree Days  
Heating Degree Days 0 0  
Month to date heating degree days 5 3  
Since 1 June heating degree days 5 3  
Since 1 July heating degree days 3081 4001  
Cooling Degree Days 18 11  
Month to date cooling degree days 289 220  
Year to date cooling degree days 616 359  
Since 1 June cooling degree days 289 220  
Growing Degree Days 35 (Base 50)    
Moisture  
Dew Point 58 °F    
Average Humidity 48    
Maximum Humidity 69    
Minimum Humidity 26    
Precipitation  
Precipitation 0.00 in 0.12 in 1.82 in (1946)
Month to date precipitation 1.21 3.74  
Year to date precipitation 14.70 21.74  
Snow  
Snow 0.00 in 0.00 in - ()
Month to date snowfall 0.0 0.0  
Since 1 June snowfall 0.0 0.0  
Since 1 July snowfall 2.1 11.5  
Snow Depth 0.00 in    
Sea Level Pressure  
Sea Level Pressure 29.87 in    
Wind  
Wind Speed 9 mph (ESE)    
Max Wind Speed 15 mph    
Max Gust Speed 18 mph    
Visibility 10 miles    
Events      
T = Trace of Precipitation, MM = Missing Value Source: NWS Daily Summary

Daily Weather History Graph

Daily Weather History Graph

Search for Another Location

Airport:

Trip Planner

Search our weather history database for the weather conditions in past years. The results will help you decide how hot, cold, wet, or windy it might be!

Date:

Astronomy

Jun. 26, 2012 Rise Set
Actual Time 5:57 AM CDT 8:34 PM CDT
Civil Twilight 5:26 AM CDT 9:04 PM CDT
Nautical Twilight 4:48 AM CDT 9:42 PM CDT
Astronomical Twilight 4:06 AM CDT 10:24 PM CDT
Moon 1:00 PM CDT (6/26) 12:15 AM CDT (6/26)
Length of Visible Light 15h 37m
Length of Day
14h 37m
Waxing Crescent, 45% of the Moon is Illuminated
Jun 26
Waxing Crescent
Jun 26
First Quarter
Jul 3
Full
Jul 10
Last Quarter
Jul 18
New

Hourly Weather History & Observations

Time (CDT) Temp. Heat Index Dew Point Humidity Pressure Visibility Wind Dir Wind Speed Gust Speed Precip Events Conditions
12:53 AM 84.9 °F 88.2 °F 68.0 °F 57% 29.84 in 10.0 mi East 8.1 mph - N/A   Clear
1:53 AM 82.9 °F 85.8 °F 68.0 °F 60% 29.83 in 10.0 mi East 8.1 mph - N/A   Clear
2:53 AM 82.4 °F 84.6 °F 66.2 °F 58% 29.90 in 10.0 mi East 8.1 mph - N/A   Clear
3:53 AM 79.0 °F - 66.0 °F 64% 29.85 in 10.0 mi East 4.6 mph - N/A   Clear
4:53 AM 78.1 °F - 64.9 °F 64% 29.86 in 10.0 mi ESE 5.8 mph - N/A   Clear
5:53 AM 75.9 °F - 64.9 °F 69% 29.87 in 10.0 mi ESE 8.1 mph - N/A   Partly Cloudy
6:53 AM 75.0 °F - 60.1 °F 60% 29.88 in 10.0 mi East 9.2 mph - N/A   Clear
7:53 AM 77.0 °F - 55.9 °F 48% 29.90 in 10.0 mi ESE 9.2 mph - N/A   Clear
8:53 AM 79.0 °F - 55.0 °F 44% 29.91 in 10.0 mi ESE 10.4 mph - N/A   Clear
9:53 AM 81.0 °F 80.4 °F 53.1 °F 38% 29.91 in 10.0 mi SSE 15.0 mph 18.4 mph N/A   Clear
10:53 AM 84.9 °F 83.6 °F 55.0 °F 36% 29.91 in 10.0 mi ESE 9.2 mph 16.1 mph N/A   Clear
11:53 AM 87.1 °F 85.9 °F 57.0 °F 36% 29.90 in 10.0 mi ESE 10.4 mph 16.1 mph N/A   Clear
12:53 PM 90.0 °F 89.1 °F 59.0 °F 35% 29.88 in 10.0 mi SSE 8.1 mph - N/A   Clear
1:53 PM 91.0 °F 90.5 °F 60.1 °F 35% 29.87 in 10.0 mi SE 8.1 mph 16.1 mph N/A   Clear
2:53 PM 93.9 °F 94.0 °F 61.0 °F 33% 29.85 in 10.0 mi East 9.2 mph - N/A   Clear
3:53 PM 93.9 °F 94.8 °F 62.1 °F 35% 29.85 in 10.0 mi East 9.2 mph - N/A   Clear
4:53 PM 95.0 °F 95.2 °F 61.0 °F 32% 29.84 in 10.0 mi ESE 10.4 mph - N/A   Clear
5:53 PM 93.9 °F 93.2 °F 59.0 °F 31% 29.83 in 10.0 mi ESE 9.2 mph 16.1 mph N/A   Clear
6:53 PM 93.0 °F 90.8 °F 54.0 °F 27% 29.82 in 10.0 mi East 6.9 mph - N/A   Clear
7:53 PM 89.1 °F 86.7 °F 53.1 °F 29% 29.82 in 10.0 mi East 6.9 mph - N/A   Clear
8:53 PM 84.9 °F - 51.1 °F 31% 29.84 in 10.0 mi ESE 8.1 mph - N/A   Clear
9:53 PM 81.0 °F - 48.9 °F 33% 29.86 in 10.0 mi ESE 9.2 mph - N/A   Clear
10:53 PM 77.0 °F - 48.0 °F 36% 29.88 in 10.0 mi SE 8.1 mph - N/A   Clear
11:53 PM 73.9 °F - 46.9 °F 38% 29.88 in 10.0 mi SE 9.2 mph - N/A   Clear